カタログに戻る

NOAA 7 DEB

運用中PO
NORAD 12559·DEBRIS·🇺🇸 United States

打ち上げ Jun 23, 1981 から Vandenberg Space Force Base

Loading…

次のパス (今後24時間)

TLE

最新Source: Space-Track

元期: Sep 14, 2026, 13:56 UTC

1 12559U 81059B   26257.58111814  .00002606  00000-0  47061-3 0  9991
2 12559  98.9698  45.3043 0003854  86.2294  47.8020 14.67427771370853

AllMySatでNOAA 7 DEBをリアルタイム追跡

Download on the App Store